STARLINK-2168 (47751 NORAD) Tracking and Keplerian Element Data

This shows tracking and keplerian element data for the satellite.

Feedback or suggestion? Click here.




ElementValue
Catalog47751
NameSTARLINK-2168
Epoch Orbit177
Epoch Day170.58334491
Epoch Year2021
RAAN17.1148
Inclination53.0538
Eccentricity0.0004708
Argument of Perigee348.0051
Mean Anonmoly135.7596
Mean Motion15.62453652
Decay Rate0.00031069
L11 47751U 21017AF 21170.58334491 .00031069 00000-0 34775-3 0 9991
L22 47751 53.0538 17.1148 0004708 348.0051 135.7596 15.62453652 1772

Live tracking and technical data element details for STARLINK-2168 (NORAD 47751). STARLINK-2168 can be tracked NOW for your location showing map with azimuth and elevation plus other details from your city location.

Track the satellite on the map from your city or location and see movement details for azimuth, elevation, latitude, longitude, range, height, and movement on the map or in text.







IsCatalogInMostPopularTable: catalog: 47751, numindb: 48
Update: records affected: 1



GetName: 47751 STARLINK-2168

Hit Count: updated at: Mon, 21 Jun 2021 03:13:15 GMT